Flag for Romania Weather past 2 weeks in Târgu Mureş, Romania

Now
41 °F

Fog.


Feels Like: 41 °F
Forecast: 35 / 53 °F
Wind: 2 mph from North

Location: Tirgu Mures Airport

Current Time: Mar 30, 2015 at 12:45:54 AM

Latest Report: Mar 30, 2015 at 12:00 AM


Visibility: 3 mi

Pressure: 29.80 "Hg

Humidity: 93%

Dew point: 39 °F

Location of Târgu MureşLocation

Historic Weather in Târgu Mureş — Graph

°F

Târgu Mureş temperature yesterday

Maximum temperature yesterday: 45 °F (at 3:30 PM)
Minimum temperature yesterday: 41 °F (at 6:30 AM)
Average temperature yesterday: 43 °F

Past Weeks' High & Low Weather Summary

 TemperatureHumidityPressure
High72 °F (Mar 26, 3:00 PM)100% (Mar 15, 8:00 AM)30.63 "Hg (Mar 15, 8:00 AM)
Low21 °F (Mar 18, 5:00 AM)0% (Mar 21, 4:00 PM)29.71 "Hg (Mar 27, 11:30 AM)
Average44 °F65%30.11 "Hg
* Reported Mar 14 10:00 PM — Mar 29 11:00 PM, Târgu Mureş, Weather by CustomWeather, © 2015

Note: Actual official high and low records may vary slightly from our data, if they occured in-between our weather recording intervals... More about our weather records

Advertising

Târgu Mureş weather history for previous 24 hours

 ConditionsComfort  
Time TempWeatherWind HumidityBarometerVisibility
11:00 PM
Sun, Mar 29
43 °FLight rain. Mostly cloudy.1 mph87%29.80 "Hg4 mi
10:00 PM43 °FMostly cloudy.3 mph87%29.83 "Hg4 mi
9:00 PM43 °FMostly cloudy.5 mph87%29.80 "Hg4 mi
8:30 PM43 °FMore clouds than sun.5 mph93%29.80 "Hg4 mi
8:00 PM43 °FFog.6 mph93%29.80 "Hg3 mi
7:30 PM43 °FMore clouds than sun.3 mph93%29.80 "Hg5 mi
7:00 PM43 °FMostly cloudy.6 mph93%29.77 "Hg5 mi
6:30 PM43 °FMostly cloudy.3 mph93%29.77 "HgN/A
6:00 PM43 °FCloudy.7 mph93%29.77 "HgN/A
5:30 PM43 °FCloudy.7 mph93%29.77 "HgN/A
5:00 PM45 °FMostly cloudy.7 mph87%29.77 "HgN/A
4:30 PM45 °FMostly cloudy.9 mph87%29.77 "HgN/A
4:00 PM45 °FMostly cloudy.8 mph81%29.77 "HgN/A
3:30 PM45 °FLight rain. Mostly cloudy.7 mph81%29.80 "HgN/A
3:00 PM43 °FLight rain. Mostly cloudy.6 mph87%29.80 "HgN/A
2:30 PM43 °FMostly cloudy.7 mph87%29.80 "HgN/A
2:00 PM43 °FLight rain. Cloudy.8 mph87%29.80 "HgN/A
1:30 PM43 °FLight rain. Mostly cloudy.9 mph87%29.80 "HgN/A
1:00 PM43 °FLight rain. Mostly cloudy.8 mph87%29.80 "HgN/A
12:30 PM43 °FLight rain. Cloudy.6 mph87%29.80 "HgN/A
12:00 PM43 °FLight rain. Mostly cloudy.7 mph81%29.80 "HgN/A
11:30 AM43 °FLight rain. Cloudy.7 mph87%29.80 "HgN/A
11:00 AM43 °FLight rain. Mostly cloudy.8 mph87%29.80 "HgN/A
10:30 AM43 °FMostly cloudy.7 mph87%29.77 "HgN/A
10:00 AM41 °FLight rain. Mostly cloudy.7 mph87%29.77 "HgN/A
9:30 AM41 °FLight rain. Mostly cloudy.6 mph93%29.77 "HgN/A
9:00 AM41 °FLight rain. Mostly cloudy.8 mph93%29.77 "HgN/A
8:30 AM41 °FLight rain. Mostly cloudy.9 mph93%29.77 "HgN/A
8:00 AM41 °FLight rain. Overcast.8 mph93%29.77 "HgN/A
7:30 AM41 °FLight rain. Mostly cloudy.7 mph93%29.74 "HgN/A
7:00 AM41 °FLight rain. Mostly cloudy.7 mph93%29.74 "HgN/A
6:30 AM41 °FLight rain. Mostly cloudy.8 mph93%29.74 "HgN/A
6:00 AM43 °FLight rain. Mostly cloudy.6 mph87%29.74 "HgN/A
5:30 AM43 °FLight rain. Mostly cloudy.3 mph87%29.74 "HgN/A
5:00 AM43 °FLight rain. Mostly cloudy.5 mph87%29.74 "HgN/A
4:00 AM43 °FLight rain. Mostly cloudy.5 mph87%29.74 "HgN/A
2:00 AM43 °FDrizzle. Mostly cloudy.7 mph93%29.74 "HgN/A
1:00 AM43 °FLight rain. Low clouds.5 mph93%29.74 "HgN/A
12:00 AM43 °FLight rain. Mostly cloudy.5 mph93%29.77 "HgN/A
Weather by CustomWeather, © 2015

See weather overviewHow to use our weather pages